#timestamp,LO_Frequency,Hit,StdDev 
1544414415.8,286046996.6,N
1544414435.7,286046997.0,N
1544414455.5,286047000.9,N
1544414475.3,286046999.9,N
1544414495.2,286047004.0,N
1544414515.0,286047002.0,N
1544414515.9,286047002.0,N
1544414535.8,286047002.2,N
1544414555.6,286047000.2,N
1544414575.4,286047002.9,N
1544414595.3,286047004.6,N
1544414615.1,286047005.7,N
1544414635.8,286047003.7,N
1544414655.7,286047003.1,N
1544414675.5,286047002.1,N
1544414695.4,286046999.8,N
1544414715.2,286047002.5,N
1544414735.0,286047003.2,N
1544414735.9,286047003.2,N
1544414755.8,286047001.5,N
1544414775.6,286047001.6,N
1544414795.4,286047001.6,N
1544414815.3,286047004.2,N
1544414835.1,286047004.4,N
1544414855.9,286047003.9,N
1544414875.7,286047005.4,N
1544414895.5,286047003.6,N
1544414915.4,286047004.0,N
1544414935.2,286047002.6,N
1544414955.0,286047001.8,N
1544414956.0,286047001.8,N
1544414975.8,286047000.1,N
1544414995.6,286047001.5,N
1544415015.5,286047003.5,N
1544415035.3,286047001.3,N
1544415055.1,286047005.4,Y
1544415075.9,286047003.0,P
1544415095.7,286047002.9,P
1544415115.6,286047004.2,P
1544415135.4,286047002.6,Y
1544415155.2,286046997.5,P
1544415175.1,286046997.3,N
1544415176.0,286046997.3,N
1544415195.8,286046999.1,N
1544415215.7,286046997.6,N
1544415235.5,286046998.0,N
1544415255.3,286046998.5,N
1544415275.2,286046998.7,N
1544415295.0,286046998.4,N
1544415295.9,286046998.4,N
1544415315.7,286046998.3,N
1544415335.6,286046999.0,N
1544415355.4,286046997.0,N
1544415375.3,286046997.2,N
1544415395.1,286046999.5,N
1544415415.8,286046997.9,N
1544415435.7,286046995.2,Y
1544415455.5,286046999.4,P
1544415475.4,286046998.5,P
1544415495.2,286046999.2,N
1544415515.0,286046999.2,N
1544415515.9,286046999.2,N
1544415535.8,286046999.6,N
1544415555.6,286046998.1,Y
1544415575.5,286047000.1,P
1544415595.3,286047004.0,P
1544415615.1,286047002.3,N
1544415635.9,286047001.2,N
1544415655.7,286046998.6,N
1544415675.5,286046999.0,N
1544415695.4,286047001.1,N
1544415715.2,286047001.2,N
1544415735.1,286047000.2,N
1544415736.0,286047000.2,N
1544415755.8,286046998.2,N
1544415775.6,286046997.8,N
1544415795.5,286046996.7,N
1544415815.3,286046997.4,N
1544415835.1,286046997.2,N
1544415855.9,286046998.0,N
1544415875.7,286046997.8,N
1544415895.6,286046998.9,N
1544415915.4,286047000.5,N
1544415935.2,286047002.7,N
1544415955.1,286047001.0,N
1544415956.0,286047001.0,N
1544415975.8,286046998.1,N
1544415995.7,286046998.6,N
1544416015.5,286046999.5,N
1544416035.3,286047000.0,N
1544416055.2,286046998.5,N
1544416075.9,286046998.4,N
1544416095.7,286046999.4,N
1544416115.6,286046999.3,N
1544416135.4,286046999.3,N
1544416155.3,286046999.7,N
1544416175.1,286046998.9,N
1544416176.0,286046998.9,N
1544416195.8,286046998.2,N
1544416215.7,286047003.1,N
1544416235.5,286047002.8,N
1544416255.3,286047001.5,N
1544416275.2,286047004.0,N
1544416295.0,286047002.0,N
1544416295.9,286047002.0,N
1544416315.8,286047001.0,N
1544416335.6,286047000.8,N
1544416355.4,286047000.7,N
1544416375.3,286047002.8,N
1544416395.1,286047000.2,N
1544416415.9,286047002.4,N
1544416435.7,286047001.0,N
1544416455.5,286046998.4,N
1544416475.4,286046999.1,N
1544416495.2,286047002.3,N
1544416515.0,286047001.5,N
1544416515.9,286047001.5,N
1544416535.8,286047000.0,N
1544416555.6,286046999.9,N
1544416575.5,286047000.9,N
1544416595.3,286046999.9,N
1544416615.1,286046999.8,N
1544416635.9,286047002.3,N
1544416655.7,286047000.2,N
1544416675.5,286046999.9,N
1544416695.4,286046998.1,N
1544416715.2,286046998.6,N
1544416735.1,286046998.9,N
1544416736.0,286046998.9,N
1544416755.8,286046998.4,N
1544416775.6,286046998.8,N
1544416795.5,286046999.4,N
1544416815.3,286046998.7,N
1544416835.1,286047001.0,N
1544416855.9,286047000.9,N
1544416875.7,286047000.0,N
1544416895.6,286046998.6,N
1544416915.4,286047000.5,N
1544416935.2,286047001.1,N
1544416955.1,286046999.0,N
1544416956.0,286046999.0,N
1544416975.8,286046998.0,N
1544416995.7,286046995.5,Y
1544417015.5,286046999.1,P
1544417035.3,286046997.7,P
1544417055.2,286046997.8,N
1544417075.0,286046997.0,Y
1544417075.9,286046997.0,P
1544417095.8,286046996.9,P
1544417115.6,286046997.1,P
1544417135.4,286046997.2,Y
1544417155.3,286046998.3,P
1544417175.1,286046998.9,N
1544417195.8,286047001.9,P
1544417215.7,286047002.5,N
1544417235.5,286047000.8,N
1544417255.4,286047000.4,N
1544417275.2,286047000.5,N
1544417295.0,286047000.0,N
1544417295.9,286047000.0,N
1544417315.8,286047000.3,N
1544417335.6,286047001.9,N
1544417355.4,286046999.7,N
1544417375.3,286046999.7,N
1544417395.1,286047002.6,N
1544417415.9,286047004.1,N
1544417435.7,286047000.1,N
1544417455.5,286047002.6,N
1544417475.4,286047001.9,N
1544417495.2,286047002.6,N
1544417515.0,286047001.0,N
1544417516.0,286047001.0,N
1544417535.8,286047000.5,N
1544417555.6,286047000.3,N
1544417575.5,286046998.2,N
1544417595.3,286046998.1,N
1544417615.1,286046998.6,N
1544417635.9,286047001.1,N
1544417655.7,286047001.0,N
1544417675.6,286046999.8,N
1544417695.4,286046999.7,N
1544417715.2,286047000.0,N
1544417735.1,286047000.9,N
1544417736.0,286047000.9,N
1544417755.8,286046999.0,N
1544417775.6,286047000.1,N
1544417795.5,286047000.2,N
1544417815.3,286046998.8,N
1544417835.2,286047000.8,N
1544417855.9,286047002.3,N
1544417875.7,286046998.9,N
1544417895.6,286046999.2,N
1544417915.4,286047000.4,N
1544417935.3,286047000.7,N
1544417955.1,286046997.1,N
1544417956.0,286046997.1,N
1544417975.8,286046997.7,N
1544417995.7,286046999.0,N
